SCP
0 0 0 0 0 0 0 0 0 0 0 0 0 0 0 0 0 0 0 0 0 0 0 0 0 0 0 0 0 0 0 0
0 0 0 0 0 0 0 0 0 0 0 0 0 0 0 0 0 0 0 0 0 0 0 0 0 0 0 0 0 0 0 0
0 0 0 0 0 0 0 0 0 0 0 0 0 0 0 0 0 0 0 0 0 0 0 0 0 0 0 0 0 0 0 0
0 0 0 0 0 0 0 0 0 0 0 0 0 0 0 0 0 0 0 0 0 0 0 0 0 0 0 0 0 0 0 0
0 0 0 0 0 0 0 0 0 0 0 0 0 0 0 0 0 0 0 0 -0 -0 -0 0 0 0 0 0 0 0 0 0
0 0 0 0 0 0 0 0 0 0 0 0 0 0 0 0 0 0 0 0 0 0 0 0 0 0 0 0 0 0 0 0
0 0 0 0 0 0 0 0 0 0 0 0 0 0 0 0 0 0 0 0 0 0 0 -0 0 0 0 0 0 0 0 0
0 0 0 0 0 0 0 0 0 0 0 0 0 0 0 0 0 0 0 0 0 0 0 0 0 0 0 0 0 0 0 0
0 0 0 0 0 0 0 0 0 0 0 0 0 0 0 0 0 0 0 0 0 0 0 0 0 0 0 0 0 0 0 0
0 0 0 0 0 0 0 0 0 0 0 0 0 0 0 0 0 0 0 0 0 0 0 0 0 0 0 0 0 0 0 0
0 0 0 0 0 0 0 0 0 0 0 0 0 0 0 0 0 0 0 0 0 0 0 0 0 0 0 0 0 0 0 0
0 0 0 0 0 0 0 0 0 0 0 0 0 0 0 0 0 0 0 0 0 0 0 0 0 0 0 0 0 0 0 0
0 0 0 0 0 0 0 0 0 0 0 0 0 0 0 0 0 0 0 0 0 0 0 0 0 0 0 0 0 0 0 0
0 0 0 0 0 0 0 0 0 0 0 0 0 0 0 0 0 0 0 0 0 0 0 0 0 0 0 0 0 0 0 0
0 0 0 0 0 0 0 0 0 0 0 0 0 0 0 0 0 0 0 0 0 0 0 0 0 0 0 0 0 0 0 0
0 0 0 0 0 0 0 0 0 0 0 0 0 0 0 0 0 0 0 0 0 0 0 0 0 0 0 0 0 0 0 0
0 0 0 0 0 0 0 0 0 0 0 0 0 0 0 0 0 0 0 0 0 0 0 0 0 0 0 0 0 0 0 0
0 0 0 0 0 0 0 0 0 -0 0 0 0 0 0 0 0 0 0 0 0 0 0 0 0 0 0 0 0 0 0 0
0 0 0 0 0 0 0 0 0 0 0 0 0 0 0 0 0 0 0 0 0 0 0 0 0 0 0 0 0 0 0 0
Wind_Speed_500mb
10 9 10 8 10 17 21 20 31 37 38 40 39 36 39 42 47 50 55 44 47 57 53 62 56 57 54 52 53 61 62 65
8 9 7 4 20 19 24 14 9 17 18 22 32 33 31 29 24 31 26 19 26 41 40 44 52 53 67 69 71 71 66 66
17 6 11 8 6 5 7 16 23 29 37 43 44 43 46 46 46 47 41 39 34 31 24 23 28 33 42 54 59 63 60 56
16 19 12 12 16 12 16 19 22 29 34 39 45 49 52 55 58 57 59 54 50 49 50 48 48 45 38 39 44 39 39 42
14 16 16 12 10 10 17 23 27 28 37 45 48 51 55 52 54 57 58 63 68 68 64 61 55 50 51 49 44 44 45 53
18 12 10 9 16 24 27 31 29 34 43 52 59 59 58 58 58 59 57 60 61 59 62 62 58 54 49 50 50 52 52 45
14 10 9 16 23 31 34 35 33 38 48 56 60 62 50 44 46 51 57 61 65 65 67 71 72 70 68 63 62 59 55 53
14 13 15 16 22 25 29 32 36 47 58 59 57 52 37 38 43 47 55 58 59 56 46 44 44 42 45 51 61 69 70 64
22 19 16 16 19 23 28 34 41 52 58 58 53 40 34 37 42 47 53 58 49 50 48 50 50 54 48 51 51 46 43 56
20 18 21 19 20 25 28 36 48 61 53 59 42 32 32 37 45 47 50 50 55 55 51 53 49 47 50 44 45 45 43 43
16 16 18 18 22 25 32 41 53 62 57 51 40 38 31 38 44 55 61 56 49 50 50 42 44 46 42 38 38 40 45 46
14 15 15 19 22 27 35 47 57 61 48 43 39 36 37 39 48 54 62 53 55 55 51 46 44 46 42 41 43 41 38 36
15 16 17 22 24 29 39 43 63 63 55 39 39 42 40 43 54 56 63 58 59 56 53 53 53 50 47 43 44 44 42 43
19 19 23 23 24 31 35 39 60 59 51 45 44 45 43 43 59 59 66 59 60 54 54 44 41 38 39 38 38 43 45 44
23 25 23 25 24 28 37 49 58 69 51 37 40 40 40 50 60 63 64 56 57 60 38 37 39 39 38 40 42 42 40 43
24 25 25 25 25 33 44 51 52 61 65 43 40 38 44 49 64 57 64 51 51 51 43 40 39 38 41 45 42 45 47 48
24 24 23 20 27 38 48 50 43 58 72 46 34 40 47 48 57 59 55 46 41 40 39 37 47 36 38 38 41 43 43 44
23 24 22 23 30 37 44 42 44 60 68 52 35 35 45 48 56 53 52 51 42 39 35 38 40 35 35 34 37 35 36 33
28 25 21 26 34 38 36 36 48 57 67 68 41 35 42 48 52 54 57 55 43 50 35 34 42 36 34 33 33 35 25 16
Wind_Direction_500mb
168 186 267 293 280 322 326 319 318 323 324 324 326 320 313 297 289 290 282 281 291 271 274 272 266 267 261 265 265 268 267 260
143 174 104 234 297 295 312 292 24 13 0 345 329 326 319 314 308 308 310 322 300 291 285 286 273 286 281 280 276 261 259 259
141 341 329 282 347 7 301 294 301 300 301 307 310 306 301 302 303 297 287 285 283 279 283 272 271 282 275 272 269 265 257 260
82 74 39 6 342 335 312 303 307 309 303 297 294 290 289 292 291 290 288 290 287 287 287 282 278 277 279 282 276 270 272 261
62 31 21 26 45 352 332 331 328 315 308 305 311 312 310 305 300 294 289 286 290 296 298 295 288 283 280 271 268 268 268 268
64 49 67 32 343 338 336 329 328 310 309 310 309 308 307 302 300 300 298 292 290 288 290 291 292 286 276 271 265 256 255 259
65 58 6 346 333 324 322 326 316 312 315 314 314 313 314 313 308 306 304 299 295 290 286 286 286 285 283 281 275 269 263 263
72 29 358 339 332 328 331 328 320 318 321 327 328 327 335 335 333 326 322 320 317 313 314 310 305 305 305 295 286 282 278 275
62 42 20 358 341 336 327 325 323 321 326 332 326 329 332 325 324 326 322 320 322 315 314 314 306 310 303 302 291 294 287 267
52 26 13 354 342 335 328 328 330 330 328 327 332 331 327 326 321 326 335 326 321 316 310 307 306 306 308 305 291 289 291 285
37 14 3 350 344 327 324 327 332 336 322 330 336 336 338 345 342 336 335 329 327 317 319 309 302 305 307 305 302 296 289 286
46 19 4 356 342 328 331 331 341 337 333 333 335 353 341 341 338 329 329 323 324 317 314 307 300 302 300 301 299 297 296 292
40 16 352 348 338 335 332 333 346 345 343 342 356 340 333 334 330 330 336 323 321 310 309 306 299 300 296 295 292 291 289 289
34 14 359 353 340 331 329 341 357 351 350 356 347 340 325 318 325 324 328 329 321 321 306 313 309 307 310 308 299 292 282 280
28 12 4 0 341 337 337 340 343 359 350 343 341 331 330 325 330 324 330 325 328 334 321 317 316 315 309 304 301 295 288 278
19 9 3 359 348 342 342 344 349 354 357 345 344 333 326 330 330 329 330 327 329 329 321 322 320 313 309 306 302 296 289 282
11 0 2 6 359 353 351 344 347 354 357 346 329 332 332 334 337 336 339 332 331 333 330 324 326 322 317 312 308 305 299 288
11 6 9 8 4 356 349 351 352 349 354 353 348 349 345 347 345 345 344 339 332 326 329 324 327 325 322 317 315 314 310 297
18 12 21 14 7 0 352 355 350 349 352 357 355 356 350 349 344 352 348 348 341 351 344 343 330 334 329 321 326 324 319 316
Wind_Speed_850mb
10 9 10 8 10 17 21 20 31 37 38 40 39 36 39 42 47 50 55 44 47 57 53 62 56 57 54 52 53 61 62 65
8 9 7 4 20 19 24 14 9 17 18 22 32 33 31 29 24 31 26 19 26 41 40 44 52 53 67 69 71 71 66 66
17 6 11 8 6 5 7 16 23 29 37 43 44 43 46 46 46 47 41 39 34 31 24 23 28 33 42 54 59 63 60 56
16 19 12 12 16 12 16 19 22 29 34 39 45 49 52 55 58 57 59 54 50 49 50 48 48 45 38 39 44 39 39 42
14 16 16 12 10 10 17 23 27 28 37 45 48 51 55 52 54 57 58 63 68 68 64 61 55 50 51 49 44 44 45 53
18 12 10 9 16 24 27 31 29 34 43 52 59 59 58 58 58 59 57 60 61 59 62 62 58 54 49 50 50 52 52 45
14 10 9 16 23 31 34 35 33 38 48 56 60 62 50 44 46 51 57 61 65 65 67 71 72 70 68 63 62 59 55 53
14 13 15 16 22 25 29 32 36 47 58 59 57 52 37 38 43 47 55 58 59 56 46 44 44 42 45 51 61 69 70 64
22 19 16 16 19 23 28 34 41 52 58 58 53 40 34 37 42 47 53 58 49 50 48 50 50 54 48 51 51 46 43 56
20 18 21 19 20 25 28 36 48 61 53 59 42 32 32 37 45 47 50 50 55 55 51 53 49 47 50 44 45 45 43 43
16 16 18 18 22 25 32 41 53 62 57 51 40 38 31 38 44 55 61 56 49 50 50 42 44 46 42 38 38 40 45 46
14 15 15 19 22 27 35 47 57 61 48 43 39 36 37 39 48 54 62 53 55 55 51 46 44 46 42 41 43 41 38 36
15 16 17 22 24 29 39 43 63 63 55 39 39 42 40 43 54 56 63 58 59 56 53 53 53 50 47 43 44 44 42 43
19 19 23 23 24 31 35 39 60 59 51 45 44 45 43 43 59 59 66 59 60 54 54 44 41 38 39 38 38 43 45 44
23 25 23 25 24 28 37 49 58 69 51 37 40 40 40 50 60 63 64 56 57 60 38 37 39 39 38 40 42 42 40 43
24 25 25 25 25 33 44 51 52 61 65 43 40 38 44 49 64 57 64 51 51 51 43 40 39 38 41 45 42 45 47 48
24 24 23 20 27 38 48 50 43 58 72 46 34 40 47 48 57 59 55 46 41 40 39 37 47 36 38 38 41 43 43 44
23 24 22 23 30 37 44 42 44 60 68 52 35 35 45 48 56 53 52 51 42 39 35 38 40 35 35 34 37 35 36 33
28 25 21 26 34 38 36 36 48 57 67 68 41 35 42 48 52 54 57 55 43 50 35 34 42 36 34 33 33 35 25 16
Wind_Direction_850mb
168 186 267 293 280 322 326 319 318 323 324 324 326 320 313 297 289 290 282 281 291 271 274 272 266 267 261 265 265 268 267 260
143 174 104 234 297 295 312 292 24 13 0 345 329 326 319 314 308 308 310 322 300 291 285 286 273 286 281 280 276 261 259 259
141 341 329 282 347 7 301 294 301 300 301 307 310 306 301 302 303 297 287 285 283 279 283 272 271 282 275 272 269 265 257 260
82 74 39 6 342 335 312 303 307 309 303 297 294 290 289 292 291 290 288 290 287 287 287 282 278 277 279 282 276 270 272 261
62 31 21 26 45 352 332 331 328 315 308 305 311 312 310 305 300 294 289 286 290 296 298 295 288 283 280 271 268 268 268 268
64 49 67 32 343 338 336 329 328 310 309 310 309 308 307 302 300 300 298 292 290 288 290 291 292 286 276 271 265 256 255 259
65 58 6 346 333 324 322 326 316 312 315 314 314 313 314 313 308 306 304 299 295 290 286 286 286 285 283 281 275 269 263 263
72 29 358 339 332 328 331 328 320 318 321 327 328 327 335 335 333 326 322 320 317 313 314 310 305 305 305 295 286 282 278 275
62 42 20 358 341 336 327 325 323 321 326 332 326 329 332 325 324 326 322 320 322 315 314 314 306 310 303 302 291 294 287 267
52 26 13 354 342 335 328 328 330 330 328 327 332 331 327 326 321 326 335 326 321 316 310 307 306 306 308 305 291 289 291 285
37 14 3 350 344 327 324 327 332 336 322 330 336 336 338 345 342 336 335 329 327 317 319 309 302 305 307 305 302 296 289 286
46 19 4 356 342 328 331 331 341 337 333 333 335 353 341 341 338 329 329 323 324 317 314 307 300 302 300 301 299 297 296 292
40 16 352 348 338 335 332 333 346 345 343 342 356 340 333 334 330 330 336 323 321 310 309 306 299 300 296 295 292 291 289 289
34 14 359 353 340 331 329 341 357 351 350 356 347 340 325 318 325 324 328 329 321 321 306 313 309 307 310 308 299 292 282 280
28 12 4 0 341 337 337 340 343 359 350 343 341 331 330 325 330 324 330 325 328 334 321 317 316 315 309 304 301 295 288 278
19 9 3 359 348 342 342 344 349 354 357 345 344 333 326 330 330 329 330 327 329 329 321 322 320 313 309 306 302 296 289 282
11 0 2 6 359 353 351 344 347 354 357 346 329 332 332 334 337 336 339 332 331 333 330 324 326 322 317 312 308 305 299 288
11 6 9 8 4 356 349 351 352 349 354 353 348 349 345 347 345 345 344 339 332 326 329 324 327 325 322 317 315 314 310 297
18 12 21 14 7 0 352 355 350 349 352 357 355 356 350 349 344 352 348 348 341 351 344 343 330 334 329 321 326 324 319 316